| time (UTC) | temp F | wind direction | speed knots | gust knots | rain 1hr in | rain 24hr in | rain mn in | humidity % | barometer mb |
| 20260903080046 | 56 | 254 | 0.0 | 0.0 | 0.00 | 0.00 | 0.00 | 73 | 1018.3 |
| 20260903075544 | 57 | 254 | 0.0 | 0.0 | 0.00 | 0.00 | 0.00 | 73 | 1018.4 |
| 20260903075044 | 57 | 254 | 0.0 | 0.0 | 0.00 | 0.00 | 0.00 | 73 | 1018.4 |
| 20260903074545 | 57 | 254 | 0.0 | 0.0 | 0.00 | 0.00 | 0.00 | 73 | 1018.4 |
| 20260903074043 | 57 | 254 | 0.0 | 0.0 | 0.00 | 0.00 | 0.00 | 73 | 1018.4 |
| 20260903073545 | 57 | 254 | 0.0 | 1.7 | 0.00 | 0.00 | 0.00 | 72 | 1018.4 |
| 20260903073044 | 57 | 254 | 0.0 | 1.7 | 0.00 | 0.00 | 0.00 | 72 | 1018.3 |
| 20260903072546 | 57 | 255 | 0.0 | 0.0 | 0.00 | 0.00 | 0.00 | 72 | 1018.4 |
| 20260903072044 | 57 | 255 | 0.0 | 0.0 | 0.00 | 0.00 | 0.00 | 72 | 1018.2 |
| 20260903071543 | 57 | 255 | 0.0 | 0.0 | 0.00 | 0.00 | 0.00 | 71 | 1018.0 |
| 20260903071310 | 57 | 255 | 0.0 | 0.0 | 0.00 | 0.00 | 0.00 | 70 | 1017.9 |
| 20260903070543 | 58 | 255 | 0.0 | 0.0 | 0.00 | 0.00 | 0.00 | 70 | 1017.9 |
| 20260903070044 | 58 | 255 | 0.0 | 0.0 | 0.00 | 0.00 | 0.00 | 69 | 1018.0 |
| 20260903065543 | 58 | 255 | 0.0 | 0.0 | 0.00 | 0.00 | 0.00 | 67 | 1018.0 |
| 20260903065045 | 58 | 255 | 0.0 | 0.0 | 0.00 | 0.00 | 0.00 | 67 | 1018.0 |
| 20260903064753 | 58 | 148 | 0.0 | 0.0 | 0.00 | 0.00 | 0.00 | 68 | 1018.0 |
| 20260903064637 | 58 | 148 | 0.0 | 0.0 | 0.00 | 0.00 | 0.00 | 67 | 1018.0 |
| 20260903063759 | 58 | 121 | 0.0 | 0.0 | 0.00 | 0.00 | 0.00 | 68 | 1017.9 |
| 20260903063042 | 59 | 121 | 0.0 | 0.0 | 0.00 | 0.00 | 0.00 | 67 | 1017.8 |
| 20260903062542 | 59 | 121 | 0.0 | 0.0 | 0.00 | 0.00 | 0.00 | 65 | 1017.8 |
| 20260903062042 | 59 | 121 | 0.0 | 0.0 | 0.00 | 0.00 | 0.00 | 62 | 1017.8 |
| 20260903061543 | 60 | 121 | 0.0 | 0.0 | 0.00 | 0.00 | 0.00 | 62 | 1017.7 |
| 20260903061042 | 60 | 121 | 0.0 | 1.7 | 0.00 | 0.00 | 0.00 | 61 | 1017.7 |
| 20260903060546 | 60 | 121 | 0.0 | 3.5 | 0.00 | 0.00 | 0.00 | 61 | 1017.6 |
| 20260903060041 | 60 | 172 | 1.7 | 3.5 | 0.00 | 0.00 | 0.00 | 61 | 1017.7 |
| 20260903055543 | 60 | 131 | 1.7 | 3.5 | 0.00 | 0.00 | 0.00 | 61 | 1017.7 |
| 20260903055041 | 60 | 144 | 2.6 | 5.2 | 0.00 | 0.00 | 0.00 | 60 | 1017.6 |
| 20260903054759 | 60 | 155 | 3.5 | 5.2 | 0.00 | 0.00 | 0.00 | 59 | 1017.5 |
| 20260903054041 | 60 | 121 | 1.7 | 3.5 | 0.00 | 0.00 | 0.00 | 60 | 1017.5 |
| 20260903053541 | 60 | 137 | 0.0 | 0.9 | 0.00 | 0.00 | 0.00 | 61 | 1017.5 |
| 20260903053041 | 60 | 137 | 0.0 | 0.0 | 0.00 | 0.00 | 0.00 | 60 | 1017.3 |
| 20260903052540 | 61 | 138 | 0.0 | 0.0 | 0.00 | 0.00 | 0.00 | 60 | 1017.3 |
| 20260903052307 | 61 | 138 | 0.0 | 0.0 | 0.00 | 0.00 | 0.00 | 58 | 1017.3 |
| 20260903051540 | 61 | 137 | 0.0 | 1.7 | 0.00 | 0.00 | 0.00 | 58 | 1017.2 |
| 20260903051042 | 61 | 138 | 0.9 | 1.7 | 0.00 | 0.00 | 0.00 | 57 | 1017.3 |
| 20260903050540 | 61 | 104 | 0.9 | 1.7 | 0.00 | 0.00 | 0.00 | 57 | 1017.3 |
| 20260903050041 | 61 | 207 | 0.0 | 1.7 | 0.00 | 0.00 | 0.00 | 57 | 1017.2 |
| 20260903045540 | 61 | 175 | 0.9 | 3.5 | 0.00 | 0.00 | 0.00 | 57 | 1017.2 |
| 20260903045039 | 61 | 113 | 1.7 | 3.5 | 0.00 | 0.00 | 0.00 | 57 | 1017.2 |
| 20260903044547 | 61 | 166 | 0.9 | 2.6 | 0.00 | 0.00 | 0.00 | 57 | 1017.1 |
| 20260903044304 | 62 | 140 | 1.7 | 3.5 | 0.00 | 0.00 | 0.00 | 57 | 1017.1 |
| 20260903043541 | 62 | 128 | 1.7 | 3.5 | 0.00 | 0.00 | 0.00 | 56 | 1017.0 |
| 20260903043040 | 62 | 118 | 1.7 | 3.5 | 0.00 | 0.00 | 0.00 | 56 | 1016.9 |
| 20260903042541 | 62 | 121 | 0.9 | 2.6 | 0.00 | 0.00 | 0.00 | 56 | 1017.0 |
| 20260903042044 | 62 | 145 | 0.9 | 2.6 | 0.00 | 0.00 | 0.00 | 55 | 1017.0 |
| 20260903041540 | 62 | 124 | 1.7 | 4.3 | 0.00 | 0.00 | 0.00 | 55 | 1017.0 |
| 20260903041040 | 62 | 90 | 1.7 | 4.3 | 0.00 | 0.00 | 0.00 | 54 | 1017.0 |
| 20260903040539 | 62 | 123 | 1.7 | 4.3 | 0.00 | 0.00 | 0.00 | 54 | 1017.0 |
| 20260903040043 | 62 | 123 | 1.7 | 5.2 | 0.00 | 0.00 | 0.00 | 53 | 1016.8 |
| 20260903035544 | 63 | 113 | 1.7 | 9.6 | 0.00 | 0.00 | 0.00 | 53 | 1016.7 |
| 20260903035041 | 63 | 114 | 3.5 | 9.6 | 0.00 | 0.00 | 0.00 | 52 | 1016.7 |
| 20260903034800 | 63 | 137 | 3.5 | 6.1 | 0.00 | 0.00 | 0.00 | 53 | 1016.4 |
| 20260903034040 | 63 | 124 | 2.6 | 6.1 | 0.00 | 0.00 | 0.00 | 53 | 1016.5 |
| 20260903033538 | 63 | 72 | 1.7 | 4.3 | 0.00 | 0.00 | 0.00 | 54 | 1016.4 |
| 20260903033306 | 63 | 109 | 0.0 | 4.3 | 0.00 | 0.00 | 0.00 | 54 | 1016.3 |
| 20260903032539 | 63 | 113 | 1.7 | 4.3 | 0.00 | 0.00 | 0.00 | 53 | 1016.3 |
| 20260903032038 | 63 | 86 | 0.9 | 6.1 | 0.00 | 0.00 | 0.00 | 53 | 1016.2 |
| 20260903031539 | 64 | 121 | 1.7 | 6.1 | 0.00 | 0.00 | 0.00 | 52 | 1016.2 |
| 20260903031038 | 64 | 78 | 2.6 | 6.1 | 0.00 | 0.00 | 0.00 | 51 | 1016.2 |
| 20260903030539 | 64 | 97 | 0.9 | 6.1 | 0.00 | 0.00 | 0.00 | 50 | 1016.1 |
| 20260903030038 | 64 | 104 | 1.7 | 6.1 | 0.00 | 0.00 | 0.00 | 50 | 1016.1 |
| 20260903025537 | 64 | 113 | 2.6 | 5.2 | 0.00 | 0.00 | 0.00 | 49 | 1016.1 |
| 20260903025037 | 65 | 118 | 1.7 | 7.8 | 0.00 | 0.00 | 0.00 | 48 | 1016.0 |
| 20260903024538 | 65 | 106 | 1.7 | 7.8 | 0.00 | 0.00 | 0.00 | 48 | 1016.1 |
| 20260903024037 | 65 | 161 | 2.6 | 7.8 | 0.00 | 0.00 | 0.00 | 47 | 1016.1 |
| 20260903023537 | 66 | 87 | 2.6 | 11.3 | 0.00 | 0.00 | 0.00 | 46 | 1016.1 |
| 20260903023038 | 66 | 110 | 2.6 | 16.5 | 0.00 | 0.00 | 0.00 | 45 | 1016.1 |
| 20260903022537 | 67 | 123 | 5.2 | 16.5 | 0.00 | 0.00 | 0.00 | 44 | 1016.0 |
| 20260903022039 | 67 | 140 | 7.8 | 15.6 | 0.00 | 0.00 | 0.00 | 43 | 1016.0 |
| 20260903021537 | 67 | 118 | 6.1 | 15.6 | 0.00 | 0.00 | 0.00 | 42 | 1015.9 |
| 20260903021036 | 67 | 89 | 4.3 | 13.9 | 0.00 | 0.00 | 0.00 | 42 | 1015.8 |
| 20260903020537 | 67 | 75 | 3.5 | 8.7 | 0.00 | 0.00 | 0.00 | 42 | 1015.8 |
| 20260903020035 | 67 | 86 | 3.5 | 12.2 | 0.00 | 0.00 | 0.00 | 42 | 1015.7 |
| 20260903015800 | 67 | 128 | 7.8 | 12.2 | 0.00 | 0.00 | 0.00 | 42 | 1015.8 |
| 20260903015305 | 67 | 120 | 3.5 | 7.8 | 0.00 | 0.00 | 0.00 | 42 | 1015.9 |
| 20260903014538 | 67 | 87 | 3.5 | 7.8 | 0.00 | 0.00 | 0.00 | 42 | 1015.8 |
| 20260903014036 | 67 | 111 | 3.5 | 10.4 | 0.00 | 0.00 | 0.00 | 42 | 1015.8 |
| 20260903013537 | 68 | 110 | 4.3 | 10.4 | 0.00 | 0.00 | 0.00 | 42 | 1015.8 |
| 20260903013036 | 68 | 109 | 4.3 | 11.3 | 0.00 | 0.00 | 0.00 | 42 | 1015.8 |
| 20260903013028 | 68 | 111 | 3.5 | 11.3 | 0.00 | 0.00 | 0.00 | 41 | 1015.8 |
| 20260903012036 | 68 | 68 | 3.5 | 13.0 | 0.00 | 0.00 | 0.00 | 40 | 1015.7 |
| 20260903011535 | 68 | 148 | 7.8 | 13.0 | 0.00 | 0.00 | 0.00 | 39 | 1015.7 |
| 20260903011036 | 68 | 123 | 2.6 | 10.4 | 0.00 | 0.00 | 0.00 | 40 | 1015.6 |
| 20260903010535 | 69 | 120 | 3.5 | 10.4 | 0.00 | 0.00 | 0.00 | 39 | 1015.7 |
| 20260903010259 | 69 | 138 | 5.2 | 10.4 | 0.00 | 0.00 | 0.00 | 39 | 1015.6 |
| 20260903005535 | 69 | 97 | 5.2 | 12.2 | 0.00 | 0.00 | 0.00 | 38 | 1015.6 |
| 20260903005035 | 69 | 137 | 7.0 | 16.5 | 0.00 | 0.00 | 0.00 | 38 | 1015.6 |
| 20260903004535 | 69 | 93 | 7.0 | 16.5 | 0.00 | 0.00 | 0.00 | 37 | 1015.5 |
| 20260903004035 | 69 | 87 | 8.7 | 15.6 | 0.00 | 0.00 | 0.00 | 37 | 1015.4 |
| 20260903003535 | 70 | 182 | 9.6 | 16.5 | 0.00 | 0.00 | 0.00 | 36 | 1015.5 |
| 20260903003033 | 70 | 117 | 7.8 | 16.5 | 0.00 | 0.00 | 0.00 | 36 | 1015.4 |
| 20260903002535 | 70 | 155 | 7.8 | 16.5 | 0.00 | 0.00 | 0.00 | 36 | 1015.4 |
| 20260903002254 | 70 | 100 | 9.6 | 18.2 | 0.00 | 0.00 | 0.00 | 35 | 1015.3 |
| 20260903001535 | 70 | 111 | 8.7 | 18.2 | 0.00 | 0.00 | 0.00 | 36 | 1015.3 |
| 20260903001034 | 70 | 104 | 7.8 | 16.5 | 0.00 | 0.00 | 0.00 | 36 | 1015.1 |
| 20260903000534 | 70 | 80 | 6.1 | 15.6 | 0.00 | 0.00 | 0.00 | 37 | 1015.3 |
| 20260903000033 | 70 | 82 | 7.8 | 15.6 | 0.00 | 0.00 | 0.00 | 37 | 1015.3 |
| 20260902235529 | 70 | 111 | 5.2 | 16.5 | 0.00 | 0.00 | 0.00 | 37 | 1015.3 |
| 20260902235035 | 70 | 78 | 8.7 | 16.5 | 0.00 | 0.00 | 0.00 | 37 | 1015.3 |
| 20260902234533 | 70 | 120 | 5.2 | 18.2 | 0.00 | 0.00 | 0.00 | 37 | 1015.3 |
| 20260902234034 | 71 | 24 | 6.1 | 18.2 | 0.00 | 0.00 | 0.00 | 37 | 1015.2 |
| 20260902233533 | 71 | 121 | 7.8 | 16.5 | 0.00 | 0.00 | 0.00 | 36 | 1015.1 |
| 20260902233035 | 71 | 125 | 7.8 | 16.5 | 0.00 | 0.00 | 0.00 | 37 | 1015.1 |
| 20260902232533 | 71 | 104 | 5.2 | 16.5 | 0.00 | 0.00 | 0.00 | 36 | 1015.2 |
| 20260902232033 | 71 | 118 | 7.0 | 13.0 | 0.00 | 0.00 | 0.00 | 36 | 1015.1 |
| 20260902231532 | 71 | 137 | 5.2 | 15.6 | 0.00 | 0.00 | 0.00 | 36 | 1015.2 |
| 20260902231033 | 71 | 190 | 6.1 | 15.6 | 0.00 | 0.00 | 0.00 | 35 | 1015.2 |
| 20260902230533 | 71 | 110 | 7.0 | 13.9 | 0.00 | 0.00 | 0.00 | 36 | 1015.2 |
| 20260902230031 | 71 | 110 | 7.0 | 13.9 | 0.00 | 0.00 | 0.00 | 36 | 1015.2 |
| 20260902225759 | 71 | 117 | 4.3 | 13.0 | 0.00 | 0.00 | 0.00 | 36 | 1015.2 |
| 20260902225032 | 71 | 87 | 3.5 | 10.4 | 0.00 | 0.00 | 0.00 | 37 | 1015.2 |
| 20260902224800 | 71 | 100 | 5.2 | 12.2 | 0.00 | 0.00 | 0.00 | 37 | 1015.3 |
| 20260902224032 | 72 | 128 | 6.1 | 13.9 | 0.00 | 0.00 | 0.00 | 37 | 1015.2 |
| 20260902223532 | 71 | 25 | 6.1 | 14.8 | 0.00 | 0.00 | 0.00 | 36 | 1015.3 |
| 20260902223029 | 71 | 75 | 7.8 | 14.8 | 0.00 | 0.00 | 0.00 | 37 | 1015.3 |
| 20260902222528 | 71 | 87 | 5.2 | 10.4 | 0.00 | 0.00 | 0.00 | 39 | 1015.5 |
| 20260902222032 | 71 | 110 | 4.3 | 10.4 | 0.00 | 0.00 | 0.00 | 39 | 1015.6 |
| 20260902221531 | 71 | 128 | 4.3 | 11.3 | 0.00 | 0.00 | 0.00 | 39 | 1015.6 |
| 20260902221033 | 71 | 104 | 7.0 | 12.2 | 0.00 | 0.00 | 0.00 | 39 | 1015.7 |
| 20260902220531 | 71 | 116 | 7.0 | 13.9 | 0.00 | 0.00 | 0.00 | 39 | 1015.8 |
| 20260902220030 | 71 | 118 | 5.2 | 13.9 | 0.00 | 0.00 | 0.00 | 40 | 1015.9 |
| 20260902215531 | 71 | 90 | 4.3 | 13.0 | 0.00 | 0.00 | 0.00 | 39 | 1015.9 |
| 20260902215031 | 71 | 151 | 7.0 | 17.4 | 0.00 | 0.00 | 0.00 | 40 | 1016.0 |
| 20260902214531 | 71 | 147 | 6.1 | 17.4 | 0.00 | 0.00 | 0.00 | 40 | 1016.0 |
| 20260902214031 | 71 | 83 | 7.0 | 16.5 | 0.00 | 0.00 | 0.00 | 41 | 1016.1 |
| 20260902213532 | 71 | 147 | 2.6 | 11.3 | 0.00 | 0.00 | 0.00 | 41 | 1016.3 |
| 20260902213031 | 71 | 89 | 5.2 | 11.3 | 0.00 | 0.00 | 0.00 | 41 | 1016.2 |
| 20260902212532 | 71 | 107 | 3.5 | 11.3 | 0.00 | 0.00 | 0.00 | 42 | 1016.2 |
| 20260902212032 | 71 | 79 | 3.5 | 10.4 | 0.00 | 0.00 | 0.00 | 42 | 1016.3 |
| 20260902211530 | 71 | 72 | 4.3 | 11.3 | 0.00 | 0.00 | 0.00 | 42 | 1016.3 |
| 20260902211030 | 71 | 138 | 5.2 | 13.9 | 0.00 | 0.00 | 0.00 | 42 | 1016.5 |
| 20260902210529 | 71 | 62 | 7.0 | 14.8 | 0.00 | 0.00 | 0.00 | 41 | 1016.4 |
| 20260902210514 | 72 | 114 | 6.1 | 14.8 | 0.00 | 0.00 | 0.00 | 41 | 1016.5 |
| 20260902210004 | 73 | 124 | 5.2 | 12.2 | 0.00 | 0.00 | 0.00 | 41 | 1016.7 |
| 20260902205622 | 73 | 127 | 7.0 | 12.2 | 0.00 | 0.00 | 0.00 | 40 | 1016.5 |
| 20260902204529 | 73 | 114 | 6.1 | 13.9 | 0.00 | 0.00 | 0.00 | 41 | 1016.5 |
| 20260902204033 | 73 | 61 | 7.8 | 13.9 | 0.00 | 0.00 | 0.00 | 42 | 1016.4 |
| 20260902203528 | 72 | 102 | 6.1 | 13.0 | 0.00 | 0.00 | 0.00 | 42 | 1016.4 |
| 20260902203029 | 71 | 79 | 5.2 | 13.9 | 0.00 | 0.00 | 0.00 | 44 | 1016.4 |
| 20260902202525 | 71 | 69 | 6.1 | 15.6 | 0.00 | 0.00 | 0.00 | 45 | 1016.7 |
| 20260902202025 | 71 | 114 | 10.4 | 15.6 | 0.00 | 0.00 | 0.00 | 44 | 1016.8 |
| 20260902201529 | 71 | 123 | 7.8 | 13.0 | 0.00 | 0.00 | 0.00 | 44 | 1016.7 |
| 20260902201028 | 70 | 107 | 7.0 | 13.9 | 0.00 | 0.00 | 0.00 | 46 | 1016.8 |
| 20260902200531 | 69 | 68 | 7.0 | 13.9 | 0.00 | 0.00 | 0.00 | 48 | 1016.8 |
| 20260902200028 | 69 | 45 | 2.6 | 13.9 | 0.00 | 0.00 | 0.00 | 47 | 1016.8 |
| 20260902195528 | 69 | 142 | 7.8 | 16.5 | 0.00 | 0.00 | 0.00 | 47 | 1017.0 |
| 20260902195028 | 68 | 138 | 7.0 | 16.5 | 0.00 | 0.00 | 0.00 | 47 | 1017.1 |
| 20260902194524 | 68 | 75 | 7.0 | 13.9 | 0.00 | 0.00 | 0.00 | 47 | 1017.2 |
| 20260902194253 | 68 | 134 | 7.8 | 13.9 | 0.00 | 0.00 | 0.00 | 48 | 1017.2 |
| 20260902193748 | 68 | 73 | 5.2 | 13.9 | 0.00 | 0.00 | 0.00 | 48 | 1017.2 |
| 20260902193025 | 68 | 157 | 5.2 | 13.0 | 0.00 | 0.00 | 0.00 | 49 | 1017.2 |
| 20260902192527 | 68 | 140 | 5.2 | 13.9 | 0.00 | 0.00 | 0.00 | 49 | 1017.3 |
| 20260902192029 | 68 | 79 | 6.1 | 13.9 | 0.00 | 0.00 | 0.00 | 49 | 1017.3 |
| 20260902191527 | 68 | 154 | 6.1 | 13.0 | 0.00 | 0.00 | 0.00 | 49 | 1017.3 |
| 20260902191027 | 68 | 78 | 4.3 | 14.8 | 0.00 | 0.00 | 0.00 | 50 | 1017.4 |
| 20260902190527 | 68 | 124 | 7.0 | 14.8 | 0.00 | 0.00 | 0.00 | 50 | 1017.4 |
| 20260902190023 | 68 | 32 | 6.1 | 11.3 | 0.00 | 0.00 | 0.00 | 49 | 1017.4 |
| 20260902185523 | 68 | 69 | 5.2 | 10.4 | 0.00 | 0.00 | 0.00 | 49 | 1017.4 |
| 20260902185023 | 68 | 127 | 6.1 | 10.4 | 0.00 | 0.00 | 0.00 | 49 | 1017.4 |
| 20260902184524 | 68 | 121 | 2.6 | 10.4 | 0.00 | 0.00 | 0.00 | 50 | 1017.3 |
| 20260902184026 | 68 | 79 | 3.5 | 11.3 | 0.00 | 0.00 | 0.00 | 50 | 1017.4 |
| 20260902183750 | 67 | 135 | 7.0 | 11.3 | 0.00 | 0.00 | 0.00 | 50 | 1017.5 |
| 20260902183026 | 67 | 96 | 4.3 | 9.6 | 0.00 | 0.00 | 0.00 | 53 | 1017.5 |
| 20260902182525 | 67 | 97 | 3.5 | 11.3 | 0.00 | 0.00 | 0.00 | 56 | 1017.5 |
| 20260902182026 | 67 | 200 | 6.1 | 11.3 | 0.00 | 0.00 | 0.00 | 55 | 1017.4 |
| 20260902181526 | 67 | 120 | 5.2 | 8.7 | 0.00 | 0.00 | 0.00 | 57 | 1017.6 |
| 20260902181026 | 67 | 110 | 3.5 | 8.7 | 0.00 | 0.00 | 0.00 | 58 | 1017.7 |
| 20260902180751 | 66 | 135 | 4.3 | 7.8 | 0.00 | 0.00 | 0.00 | 59 | 1017.7 |
| 20260902180024 | 65 | 107 | 1.7 | 6.1 | 0.00 | 0.00 | 0.00 | 63 | 1017.6 |
| 20260902175525 | 65 | 76 | 1.7 | 5.2 | 0.00 | 0.00 | 0.00 | 66 | 1017.6 |
| 20260902175026 | 64 | 111 | 2.6 | 5.2 | 0.00 | 0.00 | 0.00 | 63 | 1017.7 |
| 20260902174525 | 64 | 138 | 4.3 | 5.2 | 0.00 | 0.00 | 0.00 | 64 | 1017.6 |
| 20260902174025 | 64 | 80 | 1.7 | 3.5 | 0.00 | 0.00 | 0.00 | 66 | 1017.5 |
| 20260902173526 | 64 | 93 | 1.7 | 2.6 | 0.00 | 0.00 | 0.00 | 66 | 1017.5 |
| 20260902173025 | 64 | 123 | 0.0 | 0.9 | 0.00 | 0.00 | 0.00 | 65 | 1017.5 |
| 20260902172751 | 63 | 149 | 0.0 | 0.9 | 0.00 | 0.00 | 0.00 | 66 | 1017.4 |
| 20260902172240 | 64 | 151 | 0.9 | 0.9 | 0.00 | 0.00 | 0.00 | 66 | 1017.4 |
| 20260902171522 | 63 | 59 | 0.0 | 0.0 | 0.00 | 0.00 | 0.00 | 67 | 1017.5 |
| 20260902171025 | 63 | 144 | 0.0 | 1.7 | 0.00 | 0.00 | 0.00 | 70 | 1017.6 |
| 20260902170525 | 62 | 111 | 0.0 | 1.7 | 0.00 | 0.00 | 0.00 | 72 | 1017.7 |
| 20260902170023 | 61 | 110 | 0.0 | 1.7 | 0.00 | 0.00 | 0.00 | 74 | 1017.7 |
| 20260902165524 | 61 | 71 | 0.0 | 3.5 | 0.00 | 0.00 | 0.00 | 72 | 1017.4 |
| 20260902165024 | 61 | 83 | 1.7 | 3.5 | 0.00 | 0.00 | 0.00 | 73 | 1017.5 |
| 20260902164524 | 61 | 85 | 0.0 | 2.6 | 0.00 | 0.00 | 0.00 | 73 | 1017.6 |
| 20260902164024 | 62 | 78 | 0.0 | 2.6 | 0.00 | 0.00 | 0.00 | 72 | 1017.6 |
| 20260902163743 | 62 | 93 | 1.7 | 2.6 | 0.00 | 0.00 | 0.00 | 73 | 1017.6 |
| 20260902163025 | 61 | 56 | 0.0 | 1.7 | 0.00 | 0.00 | 0.00 | 74 | 1017.5 |
| 20260902162523 | 61 | 31 | 0.0 | 1.7 | 0.00 | 0.00 | 0.00 | 73 | 1017.4 |
| 20260902162023 | 61 | 245 | 0.0 | 0.0 | 0.00 | 0.00 | 0.00 | 71 | 1017.4 |
| 20260902161744 | 62 | 243 | 0.0 | 0.0 | 0.00 | 0.00 | 0.00 | 73 | 1017.5 |
| 20260902161626 | 62 | 243 | 0.0 | 0.0 | 0.00 | 0.00 | 0.00 | 74 | 1017.5 |
| 20260902160525 | 61 | 243 | 0.0 | 0.0 | 0.00 | 0.00 | 0.00 | 75 | 1017.6 |
| 20260902160023 | 60 | 243 | 0.0 | 0.9 | 0.00 | 0.00 | 0.00 | 77 | 1017.7 |
| 20260902155751 | 59 | 61 | 0.0 | 0.9 | 0.00 | 0.00 | 0.00 | 78 | 1017.6 |
| 20260902155022 | 59 | 61 | 0.0 | 0.9 | 0.00 | 0.00 | 0.00 | 83 | 1017.7 |
| 20260902154757 | 58 | 61 | 0.0 | 0.9 | 0.00 | 0.00 | 0.00 | 82 | 1017.7 |
| 20260902154022 | 58 | 61 | 0.0 | 0.0 | 0.00 | 0.00 | 0.00 | 82 | 1017.8 |
| 20260902153522 | 58 | 61 | 0.0 | 0.0 | 0.00 | 0.00 | 0.00 | 83 | 1017.9 |
| 20260902153244 | 58 | 61 | 0.0 | 0.0 | 0.00 | 0.00 | 0.00 | 82 | 1017.9 |
| 20260902152522 | 58 | 61 | 0.0 | 0.9 | 0.00 | 0.00 | 0.00 | 82 | 1017.9 |
| 20260902152023 | 58 | 61 | 0.0 | 2.6 | 0.00 | 0.00 | 0.00 | 83 | 1017.6 |
| 20260902151522 | 58 | 61 | 0.9 | 2.6 | 0.00 | 0.00 | 0.00 | 84 | 1017.8 |
| 20260902151023 | 58 | 199 | 0.0 | 0.9 | 0.00 | 0.00 | 0.00 | 84 | 1017.8 |
| 20260902150522 | 58 | 188 | 0.0 | 0.0 | 0.00 | 0.00 | 0.00 | 83 | 1017.9 |
| 20260902150023 | 57 | 188 | 0.0 | 0.0 | 0.00 | 0.00 | 0.00 | 85 | 1017.9 |
| 20260902145521 | 56 | 182 | 0.0 | 0.0 | 0.00 | 0.00 | 0.00 | 86 | 1017.9 |
| 20260902145242 | 56 | 245 | 0.0 | 0.0 | 0.00 | 0.00 | 0.00 | 88 | 1017.9 |
| 20260902144521 | 55 | 245 | 0.0 | 0.0 | 0.00 | 0.00 | 0.00 | 88 | 1018.0 |
| 20260902144021 | 55 | 245 | 0.0 | 0.0 | 0.00 | 0.00 | 0.00 | 89 | 1018.3 |
| 20260902143521 | 55 | 221 | 0.0 | 0.0 | 0.00 | 0.00 | 0.00 | 88 | 1018.4 |
| 20260902143021 | 55 | 149 | 0.0 | 0.0 | 0.00 | 0.00 | 0.00 | 87 | 1018.4 |
| 20260902142522 | 55 | 148 | 0.0 | 0.0 | 0.00 | 0.00 | 0.00 | 87 | 1018.0 |
| 20260902142021 | 55 | 161 | 0.0 | 1.7 | 0.00 | 0.00 | 0.00 | 87 | 1018.3 |
| 20260902141746 | 55 | 216 | 0.0 | 2.6 | 0.00 | 0.00 | 0.00 | 87 | 1018.0 |
| 20260902141021 | 55 | 183 | 1.7 | 2.6 | 0.00 | 0.00 | 0.00 | 87 | 1017.9 |
| 20260902140750 | 54 | 158 | 0.0 | 1.7 | 0.00 | 0.00 | 0.00 | 87 | 1017.8 |
| 20260902140021 | 54 | 172 | 0.0 | 0.9 | 0.00 | 0.00 | 0.00 | 88 | 1017.8 |
| 20260902135739 | 54 | 235 | 0.0 | 0.9 | 0.00 | 0.00 | 0.00 | 88 | 1018.0 |
| 20260902135021 | 54 | 321 | 0.0 | 0.0 | 0.00 | 0.00 | 0.00 | 86 | 1018.0 |
| 20260902134520 | 55 | 321 | 0.0 | 0.0 | 0.00 | 0.00 | 0.00 | 85 | 1018.4 |
| 20260902134021 | 55 | 173 | 0.0 | 0.0 | 0.00 | 0.00 | 0.00 | 84 | 1018.3 |
| 20260902133520 | 55 | 173 | 0.0 | 1.7 | 0.00 | 0.00 | 0.00 | 84 | 1018.5 |
| 20260902133021 | 55 | 73 | 0.0 | 3.5 | 0.00 | 0.00 | 0.00 | 83 | 1018.5 |
| 20260902132519 | 55 | 62 | 0.0 | 3.5 | 0.00 | 0.00 | 0.00 | 84 | 1018.5 |
| 20260902132020 | 55 | 144 | 1.7 | 3.5 | 0.00 | 0.00 | 0.00 | 86 | 1018.4 |
| 20260902131519 | 55 | 169 | 0.0 | 0.0 | 0.00 | 0.00 | 0.00 | 86 | 1017.8 |
| 20260902131019 | 55 | 252 | 0.0 | 1.7 | 0.00 | 0.00 | 0.00 | 84 | 1017.5 |
| 20260902130518 | 55 | 255 | 0.0 | 3.5 | 0.00 | 0.00 | 0.00 | 84 | 1017.5 |
| 20260902130019 | 55 | 329 | 0.0 | 4.3 | 0.00 | 0.00 | 0.00 | 83 | 1017.7 |
| 20260902125520 | 55 | 133 | 2.6 | 4.3 | 0.00 | 0.00 | 0.00 | 82 | 1017.8 |
| 20260902125018 | 56 | 147 | 1.7 | 3.5 | 0.00 | 0.00 | 0.00 | 82 | 1017.6 |
| 20260902124520 | 56 | 114 | 0.0 | 0.9 | 0.00 | 0.00 | 0.00 | 79 | 1017.4 |
| 20260902124019 | 56 | 117 | 0.0 | 0.0 | 0.00 | 0.00 | 0.00 | 77 | 1018.0 |
| 20260902123737 | 56 | 117 | 0.0 | 3.5 | 0.00 | 0.00 | 0.00 | 76 | 1018.3 |
| 20260902123244 | 56 | 120 | 0.9 | 3.5 | 0.00 | 0.00 | 0.00 | 72 | 1018.4 |
| 20260902122518 | 56 | 158 | 0.9 | 2.6 | 0.00 | 0.00 | 0.00 | 73 | 1018.3 |
| 20260902122019 | 56 | 168 | 0.9 | 2.6 | 0.00 | 0.00 | 0.00 | 73 | 1018.3 |
| 20260902121518 | 56 | 159 | 0.9 | 2.6 | 0.00 | 0.00 | 0.00 | 74 | 1017.8 |
| 20260902121019 | 56 | 219 | 0.0 | 2.6 | 0.00 | 0.00 | 0.00 | 77 | 1017.8 |
| 20260902120518 | 57 | 161 | 1.7 | 2.6 | 0.00 | 0.00 | 0.00 | 75 | 1017.8 |
| 20260902120017 | 57 | 90 | 0.0 | 1.7 | 0.00 | 0.00 | 0.00 | 76 | 1017.8 |
| 20260902115517 | 57 | 87 | 0.0 | 2.6 | 0.00 | 0.00 | 0.00 | 77 | 1017.7 |
| 20260902115017 | 57 | 166 | 1.7 | 2.6 | 0.00 | 0.00 | 0.00 | 79 | 1017.6 |
| 20260902114517 | 57 | 250 | 1.7 | 2.6 | 0.00 | 0.00 | 0.00 | 77 | 1017.4 |
| 20260902114017 | 57 | 120 | 0.0 | 0.0 | 0.00 | 0.00 | 0.00 | 73 | 1017.4 |
| 20260902113518 | 57 | 120 | 0.0 | 0.0 | 0.00 | 0.00 | 0.00 | 74 | 1017.7 |
| 20260902113017 | 57 | 202 | 0.0 | 0.9 | 0.00 | 0.00 | 0.00 | 73 | 1017.6 |
| 20260902112738 | 57 | 196 | 0.0 | 0.9 | 0.00 | 0.00 | 0.00 | 72 | 1017.6 |
| 20260902112017 | 58 | 213 | 0.0 | 0.0 | 0.00 | 0.00 | 0.00 | 74 | 1017.7 |
| 20260902111516 | 58 | 107 | 0.0 | 0.0 | 0.00 | 0.00 | 0.00 | 77 | 1017.8 |
| 20260902111017 | 58 | 199 | 0.0 | 1.7 | 0.00 | 0.00 | 0.00 | 76 | 1017.8 |
| 20260902110517 | 58 | 203 | 0.0 | 1.7 | 0.00 | 0.00 | 0.00 | 75 | 1017.7 |
| 20260902110017 | 58 | 190 | 0.0 | 0.0 | 0.00 | 0.00 | 0.00 | 79 | 1017.7 |
| 20260902105515 | 58 | 292 | 0.0 | 0.0 | 0.00 | 0.00 | 0.00 | 78 | 1017.7 |
| 20260902105017 | 58 | 292 | 0.0 | 0.0 | 0.00 | 0.00 | 0.00 | 78 | 1017.7 |
| 20260902104516 | 58 | 292 | 0.0 | 0.0 | 0.00 | 0.00 | 0.00 | 77 | 1017.7 |
| 20260902104018 | 58 | 292 | 0.0 | 0.0 | 0.00 | 0.00 | 0.00 | 77 | 1017.7 |
| 20260902103516 | 58 | 292 | 0.0 | 0.9 | 0.00 | 0.00 | 0.00 | 77 | 1017.7 |
| 20260902103016 | 58 | 292 | 0.0 | 0.9 | 0.00 | 0.00 | 0.00 | 76 | 1017.8 |
| 20260902102516 | 58 | 292 | 0.0 | 0.9 | 0.00 | 0.00 | 0.00 | 75 | 1017.9 |
| 20260902102015 | 58 | 97 | 0.0 | 0.0 | 0.00 | 0.00 | 0.00 | 74 | 1017.8 |
| 20260902101516 | 58 | 199 | 0.0 | 0.0 | 0.00 | 0.00 | 0.00 | 73 | 1017.8 |
| 20260902101016 | 58 | 199 | 0.0 | 0.0 | 0.00 | 0.00 | 0.00 | 74 | 1017.9 |
| 20260902100515 | 59 | 216 | 0.0 | 0.9 | 0.00 | 0.00 | 0.00 | 74 | 1018.0 |
| 20260902100015 | 59 | 209 | 0.0 | 0.9 | 0.00 | 0.00 | 0.00 | 74 | 1018.2 |
| 20260902095736 | 59 | 162 | 0.0 | 0.0 | 0.00 | 0.00 | 0.00 | 74 | 1018.2 |
| 20260902095014 | 59 | 162 | 0.0 | 0.0 | 0.00 | 0.00 | 0.00 | 75 | 1018.2 |
| 20260902094515 | 59 | 162 | 0.0 | 0.0 | 0.00 | 0.00 | 0.00 | 76 | 1018.4 |
| 20260902094014 | 59 | 162 | 0.0 | 0.0 | 0.00 | 0.00 | 0.00 | 75 | 1018.4 |
| 20260902093514 | 59 | 162 | 0.0 | 0.0 | 0.00 | 0.00 | 0.00 | 72 | 1018.5 |
| 20260902093015 | 60 | 162 | 0.0 | 0.0 | 0.00 | 0.00 | 0.00 | 71 | 1018.6 |
| 20260902092732 | 60 | 162 | 0.0 | 0.0 | 0.00 | 0.00 | 0.00 | 70 | 1018.6 |
| 20260902092015 | 60 | 162 | 0.0 | 0.9 | 0.00 | 0.00 | 0.00 | 74 | 1018.7 |
| 20260902091514 | 60 | 162 | 0.0 | 0.9 | 0.00 | 0.00 | 0.00 | 74 | 1018.6 |
| 20260902091016 | 60 | 68 | 0.0 | 0.0 | 0.00 | 0.00 | 0.00 | 74 | 1018.8 |
| 20260902090513 | 61 | 68 | 0.0 | 1.7 | 0.00 | 0.00 | 0.00 | 73 | 1018.8 |
| 20260902090241 | 61 | 68 | 0.0 | 1.7 | 0.00 | 0.00 | 0.00 | 73 | 1018.9 |
| 20260902085514 | 61 | 93 | 0.0 | 0.0 | 0.00 | 0.00 | 0.00 | 71 | 1018.9 |
| 20260902085013 | 61 | 178 | 0.0 | 0.0 | 0.00 | 0.00 | 0.00 | 72 | 1018.8 |
| 20260902084513 | 61 | 300 | 0.0 | 1.7 | 0.00 | 0.00 | 0.00 | 72 | 1018.7 |
| 20260902084012 | 61 | 290 | 0.0 | 1.7 | 0.00 | 0.00 | 0.00 | 73 | 1018.8 |
| 20260902083514 | 61 | 302 | 0.0 | 0.9 | 0.00 | 0.00 | 0.00 | 74 | 1018.8 |
| 20260902083013 | 61 | 292 | 0.0 | 0.9 | 0.00 | 0.00 | 0.00 | 74 | 1018.8 |
| 20260902082741 | 60 | 23 | 0.0 | 0.0 | 0.00 | 0.00 | 0.00 | 75 | 1018.8 |
| 20260902082013 | 60 | 23 | 0.0 | 0.0 | 0.00 | 0.00 | 0.00 | 75 | 1018.7 |
| 20260902081512 | 61 | 316 | 0.0 | 0.0 | 0.00 | 0.00 | 0.00 | 75 | 1018.8 |
| 20260902081013 | 61 | 316 | 0.0 | 0.0 | 0.00 | 0.00 | 0.00 | 75 | 1018.7 |
| 20260902080737 | 61 | 316 | 0.0 | 0.0 | 0.00 | 0.00 | 0.00 | 75 | 1018.7 |